Valparaiso, FL

8:27 PM CDT on July 23, 2017 (GMT -0500)
Eglin Air Force Base

Weather History for KVPS - July, 2013

Change the Weather History Date:

Thursday, July 18, 2013

  Actual Average Record
Temperature  
Mean Temperature 80 °F -  
Max Temperature 88 °F 91 °F 102 °F (2000)
Min Temperature 72 °F 70 °F 63 °F (1967)
Cooling Degree Days 14    
Growing Degree Days 30 (Base 50)    
Moisture  
Dew Point 72 °F    
Average Humidity 74    
Maximum Humidity 90    
Minimum Humidity 55    
Precipitation  
Precipitation 0.00 in - - ()
Sea Level Pressure  
Sea Level Pressure 30.10 in    
Wind  
Wind Speed 5 mph (ESE)    
Max Wind Speed 13 mph    
Max Gust Speed -    
Visibility 10 miles    
Events Thunderstorm    
Averages and records for this station are not official NWS values.
T = Trace of Precipitation, MM = Missing Value Source: NWS Daily Summary

Daily Weather History Graph

Daily Weather History Graph

Search for Another Location

Airport or City:

Trip Planner

Search our weather history database for the weather conditions in past years. The results will help you decide how hot, cold, wet, or windy it might be!

Date:

Astronomy

Jul. 18, 2013 Rise Set
Actual Time 5:56 AM CDT 7:48 PM CDT
Civil Twilight 5:29 AM CDT 8:15 PM CDT
Nautical Twilight 4:56 AM CDT 8:47 PM CDT
Astronomical Twilight 4:22 AM CDT 9:22 PM CDT
Moon 3:46 PM CDT (7/18) 1:42 AM CDT (7/18)
Length of Visible Light 14h 46m
Length of Day
13h 52m
Waxing Gibbous, 77% of the Moon is Illuminated
Jul 18
Waxing Gibbous
Jul 22
Full
Jul 29
Last Quarter
Aug 6
New
Aug 14
First Quarter

Hourly Weather History & Observations

Time (CDT) Temp. Heat Index Dew Point Humidity Pressure Visibility Wind Dir Wind Speed Gust Speed Precip Events Conditions
12:57 AM 76.6 °F - 73.6 °F 90% 30.15 in 10.0 mi North 5.8 mph - N/A   Scattered Clouds
1:36 AM 77.0 °F - 71.6 °F 83% 30.13 in 10.0 mi North 2.3 mph - N/A   Partly Cloudy
1:55 AM 76.5 °F - 70.9 °F 83% 30.13 in 10.0 mi NNW 3.5 mph - N/A   Partly Cloudy
2:57 AM 75.4 °F - 70.9 °F 86% 30.10 in 10.0 mi ENE 3.5 mph - N/A   Mostly Cloudy
3:56 AM 74.7 °F - 70.5 °F 87% 30.09 in 10.0 mi Calm Calm - N/A   Mostly Cloudy
4:55 AM 75.4 °F - 68.9 °F 80% 30.10 in 10.0 mi East 4.6 mph - N/A   Mostly Cloudy
5:55 AM 72.9 °F - 68.9 °F 87% 30.11 in 10.0 mi North 6.9 mph - N/A   Mostly Cloudy
6:55 AM 73.9 °F - 69.3 °F 85% 30.13 in 10.0 mi NNE 3.5 mph - N/A   Mostly Cloudy
7:55 AM 75.7 °F - 69.8 °F 82% 30.14 in 10.0 mi NE 6.9 mph - N/A   Mostly Cloudy
8:55 AM 80.4 °F 84.1 °F 70.9 °F 73% 30.14 in 10.0 mi East 5.8 mph - N/A   Scattered Clouds
9:55 AM 83.1 °F 88.6 °F 72.3 °F 70% 30.14 in 10.0 mi SE 2.3 mph - N/A   Scattered Clouds
10:55 AM 84.2 °F 91.2 °F 73.8 °F 71% 30.15 in 10.0 mi SE 6.9 mph - N/A   Scattered Clouds
11:55 AM 86.2 °F 93.8 °F 73.6 °F 66% 30.14 in 10.0 mi SSE 4.6 mph - N/A   Scattered Clouds
12:55 PM 87.8 °F 97.1 °F 74.7 °F 65% 30.12 in 10.0 mi SE 9.2 mph - N/A   Mostly Cloudy
1:39 PM 87.8 °F 97.6 °F 75.2 °F 66% 30.09 in 10.0 mi South 11.5 mph - N/A Thunderstorm Thunderstorm
1:55 PM 87.8 °F 97.1 °F 74.8 °F 65% 30.11 in 10.0 mi South 12.7 mph - N/A Thunderstorm Thunderstorm
2:58 PM 84.7 °F 89.7 °F 71.1 °F 63% 30.09 in 10.0 mi West 8.1 mph - N/A Thunderstorm Thunderstorm
3:55 PM 87.6 °F 93.1 °F 70.5 °F 57% 30.07 in 10.0 mi SSW 8.1 mph - N/A Thunderstorm Thunderstorm
4:15 PM 87.8 °F 92.6 °F 69.8 °F 55% 30.07 in 10.0 mi North 9.2 mph - N/A   Mostly Cloudy
4:55 PM 85.1 °F 90.4 °F 71.1 °F 63% 30.07 in 10.0 mi NE 8.1 mph - N/A   Mostly Cloudy
5:55 PM 86.2 °F 91.4 °F 70.9 °F 60% 30.05 in 10.0 mi ESE 6.9 mph - N/A   Mostly Cloudy
6:55 PM 84.4 °F 90.6 °F 72.7 °F 68% 30.06 in 10.0 mi SSE 5.8 mph - N/A   Mostly Cloudy
7:55 PM 82.6 °F 88.3 °F 73.0 °F 73% 30.07 in 10.0 mi South 8.1 mph - N/A   Mostly Cloudy
8:33 PM 82.4 °F 88.2 °F 73.4 °F 74% 30.07 in 10.0 mi SSE 5.8 mph - N/A   Mostly Cloudy
8:55 PM 82.0 °F 88.1 °F 74.3 °F 77% 30.09 in 10.0 mi SSE 6.9 mph - N/A   Mostly Cloudy
9:18 PM 80.6 °F 86.2 °F 75.2 °F 84% 30.08 in 10.0 mi SSE 5.8 mph - N/A   Scattered Clouds
9:55 PM 81.0 °F 86.2 °F 73.9 °F 79% 30.10 in 10.0 mi SSE 4.6 mph - N/A   Scattered Clouds
10:55 PM 80.4 °F 85.3 °F 74.1 °F 81% 30.11 in 10.0 mi Calm Calm - N/A   Mostly Cloudy
11:57 PM 78.3 °F - 73.8 °F 86% 30.10 in 10.0 mi Calm Calm - N/A   Mostly Cloudy